Location: Grandview
(34.8900°N, 117.1058°W)
Time: 14:59:34
(UTC-07:00)

Tiangong 2 - Pass Details

Date: 11 October 2017
Orbit: 388 x 392 km, 42.8° (Epoch: 19 October)

Event Time Altitude Azimuth Distance (km) Brightness Sun altitude
Exits shadow 04:43:29 18° 52° (NE) 1,041 3.9 -26.9°
Drops below altitude 10° 04:44:27 10° 56° (NE) 1,419 4.8 -26.7°
Sets 04:46:34 0° 61° (ENE) 2,277 6.1 -26.3°
